Location: Rowland
(34.5359°N, 79.2929°W)
Time: 19:37:25
(UTC+00:00)

Transit 2A Rocket - Pass Details

Date: 12 October 2022
Orbit: 589 x 911 km, 66.7° (Epoch: 03 December)

Event Time Altitude Azimuth Distance (km) Brightness Sun altitude
Rises 07:20:58 0° 173° (S) 2,853 - -48.4°
Reaches altitude 10° 07:23:40 10° 157° (SSE) 1,927 - -47.9°
Maximum altitude 07:26:51 20° 108° (ESE) 1,361 - -47.4°
Drops below altitude 10° 07:30:02 10° 60° (ENE) 1,916 - -46.8°
Exits shadow 07:32:32 - 44° (NE) 2,769 8.6 -46.4°
Sets 07:32:42 0° 44° (NE) 2,832 8.6 -46.3°
